RH
50 61 69 62 54 48 49 51 52 46 43 52 53 53 51 48 50 50 49 51 50 48 43 44 46 48 50 51 55 55 63 64 80 89 97 98 97 97 97 96 91 87 82 76
57 71 54 48 48 53 55 63 64 51 48 51 51 52 50 48 53 50 52 54 53 52 48 45 47 50 50 51 53 57 58 63 64 73 79 90 96 98 96 95 96 94 94 96
73 58 44 46 55 58 62 74 72 68 56 52 55 55 53 51 45 46 47 50 51 54 55 52 52 53 52 56 60 60 62 63 62 64 72 80 90 98 99 99 98 95 93 95
67 52 54 54 54 61 70 61 61 62 73 86 55 82 53 54 49 49 52 55 58 56 53 53 57 58 56 57 61 62 63 63 59 64 70 75 87 94 95 97 97 95 90 92
77 70 72 64 63 60 64 60 62 62 72 75 68 80 60 48 51 54 56 56 56 54 52 56 60 59 58 61 63 66 64 65 65 67 66 71 77 82 84 88 98 97 96 93
65 60 65 69 62 60 59 64 61 60 73 94 72 71 66 63 59 56 53 53 53 53 52 52 53 57 64 66 67 70 68 68 67 69 70 68 70 75 83 83 90 96 97 96
84 62 59 60 74 64 68 87 96 96 97 91 56 70 63 61 58 59 60 53 49 50 54 56 57 65 67 70 70 66 68 71 67 71 73 74 73 72 75 81 86 87 94 98
90 83 68 60 79 82 80 77 97 99 98 89 59 68 74 57 57 58 55 52 43 50 52 56 56 64 73 70 73 73 71 73 70 69 70 72 76 75 70 70 77 82 87 91
94 92 62 59 62 68 84 91 72 80 90 98 72 61 62 65 59 56 56 52 48 52 53 54 55 64 75 74 74 72 74 74 75 75 74 75 71 74 78 78 74 76 81 86
87 92 88 65 70 70 78 65 92 93 96 95 83 74 73 78 58 51 57 49 50 53 54 55 57 61 71 66 68 69 71 76 78 77 76 76 78 78 77 75 82 84 78 82
98 93 92 81 94 81 83 88 69 68 83 96 95 88 61 58 60 68 62 51 58 63 60 58 59 61 66 70 70 74 77 79 82 82 80 81 81 81 81 83 85 87 93 95
86 94 95 92 83 59 64 73 69 93 96 86 94 87 62 66 69 70 69 59 64 67 64 63 63 65 72 79 70 72 72 82 83 81 81 84 83 84 87 87 87 86 86 88
70 91 89 87 86 78 88 70 65 76 83 88 93 88 71 68 75 77 78 82 89 79 81 79 77 81 84 89 85 71 73 82 83 82 84 85 88 88 89 87 86 85 86 86
65 95 88 76 76 77 96 93 77 85 97 89 86 82 79 87 90 87 94 99 100 97 98 97 91 92 92 92 90 79 73 77 80 83 85 89 90 90 90 88 88 88 85 86
68 95 88 86 76 72 76 81 91 92 80 90 85 91 76 79 84 87 86 99 99 99 98 98 99 99 97 95 89 86 85 87 78 86 87 89 90 87 89 90 90 88 87 85
67 89 91 91 87 92 95 82 84 89 89 89 83 84 63 74 88 99 94 98 98 98 99 99 98 98 96 96 96 86 89 84 82 84 87 87 89 89 91 91 92 89 88 84
79 88 88 80 82 85 76 78 80 88 86 81 89 76 78 84 74 84 84 94 92 84 82 97 92 94 95 96 91 91 84 84 79 85 86 91 93 93 92 93 90 94 95 94
70 84 92 92 87 57 64 70 63 80 85 76 76 79 78 70 63 63 66 77 78 73 62 60 69 77 86 85 92 85 86 87 89 80 80 86 87 91 92 90 90 89 92 94
66 69 95 82 95 59 70 77 81 74 57 65 71 62 66 64 68 66 57 58 60 67 67 67 67 64 68 74 75 81 85 90 92 94 92 86 92 91 90 90 90 94 94 93
69 68 87 94 78 55 50 59 56 64 76 57 60 66 66 66 71 58 63 59 57 66 69 74 74 72 72 75 76 84 86 88 94 95 94 90 90 90 94 93 95 92 90 87
91 93 95 92 92 72 58 62 64 51 34 59 56 59 62 70 58 54 65 64 67 73 72 76 75 76 76 81 83 86 87 90 94 95 94 95 91 91 91 92 92 92 93 91
91 94 97 94 95 63 71 77 54 43 66 68 67 58 60 62 61 59 62 75 80 78 79 81 81 83 85 86 84 85 85 92 98 96 97 98 97 95 94 96 97 96 96 97
75 74 83 72 65 47 65 63 63 69 65 70 71 67 61 65 67 58 61 75 83 82 84 83 84 87 91 92 92 90 92 96 96 97 98 98 98 97 96 97 97 97 96 97
69 61 77 66 55 49 55 54 56 63 70 66 69 71 72 68 68 70 60 72 82 84 85 89 89 89 90 92 92 92 94 96 97 97 98 97 98 98 96 97 97 97 97 97
77 67 79 78 60 51 46 55 46 46 51 70 72 67 70 73 72 70 71 73 80 84 90 89 86 88 86 91 92 95 95 97 96 95 95 97 97 97 97 97 96 98 97 94
72 69 62 57 48 43 44 48 51 54 53 47 63 71 76 76 77 75 78 77 79 83 88 91 89 88 87 90 90 94 95 96 95 92 91 95 97 98 98 98 98 75 79 76
Wind_Speed
6 9 8 9 7 6 6 6 8 7 7 6 3 4 5 6 8 8 8 8 8 9 8 7 8 9 8 9 10 11 10 10 8 7 6 2 4 2 2 4 5 4 4 6
4 8 7 8 7 6 6 7 8 5 1 4 3 3 5 5 5 6 7 7 8 9 9 11 11 11 11 10 8 8 9 8 7 5 4 3 5 2 2 6 5 5 5 4
8 4 7 6 6 12 7 6 8 6 10 8 6 7 8 5 6 6 7 6 7 9 9 9 10 11 9 11 10 10 8 8 6 7 6 6 4 4 2 5 6 9 10 9
6 5 7 5 7 10 3 8 8 7 6 2 2 4 7 8 6 8 7 7 7 8 7 8 10 11 11 10 9 10 9 8 7 7 6 8 5 5 5 3 5 6 11 12
0 5 6 6 6 8 5 9 6 6 6 6 4 1 4 7 6 8 7 7 7 7 7 8 8 9 10 10 10 10 11 10 8 7 7 6 5 5 6 6 5 7 8 10
3 2 3 4 8 5 12 6 6 6 2 2 4 3 1 2 4 5 6 6 6 7 8 7 7 8 7 7 9 8 9 9 10 10 9 8 8 7 7 7 5 4 5 6
4 2 3 5 5 1 12 5 2 3 3 2 2 2 3 6 5 4 4 5 5 5 6 7 8 7 8 8 9 10 11 11 10 9 9 9 9 8 7 5 4 6 6 3
3 3 5 7 4 4 7 6 3 3 5 5 3 4 1 5 3 1 1 3 5 6 6 6 6 7 7 8 8 9 10 11 12 11 11 8 8 5 6 5 3 4 4 5
3 2 1 3 3 4 6 5 1 1 2 2 4 3 2 2 4 6 3 1 6 6 6 7 7 6 6 7 7 9 10 11 11 11 10 10 9 8 7 8 8 5 5 5
1 3 2 2 1 3 2 2 1 2 5 5 4 4 2 3 1 4 2 5 6 6 7 7 7 7 6 6 8 8 9 10 10 11 9 9 10 10 9 8 7 8 7 5
2 3 3 2 1 2 1 1 2 1 2 1 4 5 2 4 5 4 5 5 5 5 6 6 6 6 7 7 8 9 8 9 9 10 10 10 9 10 9 8 8 8 6 6
5 1 2 4 1 3 4 3 2 2 2 1 0 9 3 4 2 1 3 2 4 3 4 5 6 6 7 7 8 8 8 10 10 10 10 9 9 9 9 8 9 8 9 9
3 0 3 3 2 1 3 3 4 4 2 5 2 8 2 4 4 4 5 2 3 3 5 5 6 6 6 6 6 8 7 8 9 9 9 9 10 9 9 9 9 9 10 11
3 1 5 6 4 3 3 3 5 6 2 3 8 10 7 6 5 6 5 4 5 4 5 5 5 5 6 5 6 8 7 7 7 8 8 9 9 9 8 9 9 10 10 11
2 2 2 6 8 4 6 7 8 9 9 6 5 5 13 10 8 8 7 4 5 5 6 5 3 3 4 5 6 6 6 6 6 9 9 9 9 9 8 8 8 9 10 10
3 1 2 6 2 2 6 9 9 6 5 12 15 22 12 6 2 2 3 5 6 7 8 6 4 3 1 3 3 5 5 6 6 7 8 8 8 8 9 9 8 9 10 10
5 3 2 6 2 5 7 8 12 5 7 7 8 12 4 3 5 4 6 8 7 7 6 6 6 5 3 1 3 5 6 5 7 6 8 6 7 8 9 9 10 9 10 10
3 3 2 5 4 4 7 3 7 8 6 16 10 8 5 5 5 5 7 8 8 7 6 6 6 6 5 3 1 1 5 5 5 6 7 7 7 7 7 8 9 8 6 8
3 2 1 3 2 9 1 5 7 8 8 16 19 14 7 4 4 9 11 9 8 9 6 6 6 6 6 5 3 4 4 5 5 5 5 5 5 6 7 8 8 5 5 7
2 3 4 1 3 5 4 4 4 2 6 6 14 8 7 7 3 5 4 8 8 9 8 8 7 6 6 5 4 5 3 4 4 4 4 4 4 6 5 6 3 4 4 6
4 1 4 3 4 11 5 7 5 7 7 3 7 7 8 7 5 2 4 6 7 8 9 8 8 7 7 5 5 5 3 4 3 3 3 4 5 5 5 5 4 3 3 4
9 10 6 3 2 11 7 5 8 3 0 2 3 5 8 7 5 4 5 6 9 10 9 9 7 7 6 6 6 6 5 5 3 4 4 3 4 3 3 4 2 3 4 4
4 8 8 12 10 1 12 5 7 2 2 3 3 5 7 7 8 7 6 7 8 10 8 7 8 7 5 5 4 6 5 5 4 4 2 3 3 4 4 3 2 2 2 2
5 4 3 2 7 14 10 10 9 7 8 6 6 4 5 7 8 8 7 7 8 7 9 6 8 8 8 6 5 4 6 6 4 5 3 2 2 2 0 1 2 2 2 3
5 8 6 7 11 8 13 11 12 9 10 9 9 8 9 8 8 8 8 9 9 8 5 7 10 8 9 8 7 6 6 6 5 3 3 3 3 4 2 1 2 2 1 2
7 10 8 9 10 6 6 4 5 10 12 14 9 8 11 11 11 8 8 9 8 9 7 8 8 8 9 9 9 8 8 8 7 7 7 5 3 3 3 3 1 3 4 3
Wind_Direction
19 55 34 8 11 330 311 329 310 357 18 309 57 65 53 61 24 22 34 35 22 26 37 46 41 40 17 24 11 11 18 20 8 353 351 91 237 184 161 188 185 198 179 168
97 45 1 322 15 330 340 360 351 311 344 304 291 193 121 82 92 52 33 35 29 20 14 18 24 30 27 18 5 6 23 23 7 5 337 292 298 255 203 167 174 202 190 183
73 4 328 347 27 347 90 17 330 304 311 244 279 256 166 144 122 89 54 39 37 25 4 9 16 20 21 18 2 356 5 17 14 354 338 330 279 240 145 199 180 199 192 184
67 8 349 4 26 352 324 4 313 308 330 17 36 303 176 152 150 91 58 33 29 16 17 18 15 8 10 14 4 358 355 8 4 354 345 352 341 321 360 262 196 188 199 191
132 13 346 29 1 334 308 330 314 313 303 327 169 67 94 138 193 81 63 46 29 12 14 19 23 10 7 8 8 0 353 351 357 355 348 340 329 327 316 329 260 192 192 198
93 174 33 335 308 280 287 287 222 282 292 10 36 39 144 100 24 48 52 54 44 8 11 14 22 11 14 5 8 355 358 348 351 347 340 334 331 329 333 332 318 312 200 201
324 47 116 344 336 215 347 330 338 343 355 199 84 346 305 120 82 53 23 20 9 31 22 1 1 14 5 0 10 354 355 347 347 341 337 335 323 318 305 310 315 316 332 209
43 342 19 349 82 332 331 344 94 288 346 306 128 249 171 75 117 307 170 39 40 33 17 7 4 2 15 358 7 357 352 345 342 342 335 324 318 310 302 299 281 286 301 313
13 255 125 54 7 356 318 44 11 312 125 313 248 90 148 122 259 241 78 344 47 29 14 6 6 6 22 358 4 354 352 349 345 339 333 330 328 320 313 309 306 288 272 266
248 336 307 53 249 225 300 298 335 304 10 322 309 284 261 219 290 39 32 50 40 26 11 8 4 357 5 1 360 3 356 348 344 341 336 332 327 324 319 310 312 289 277 267
157 120 301 315 17 10 244 352 297 106 33 246 308 272 342 94 63 7 347 58 42 19 0 2 356 3 359 6 6 355 355 353 350 343 339 338 343 339 334 340 338 338 13 2
150 112 288 226 297 13 314 324 315 112 243 205 198 275 60 101 78 43 301 339 83 17 5 358 355 9 6 3 358 359 354 355 352 346 347 356 355 358 8 8 9 21 38 45
147 245 6 328 3 73 275 230 243 69 69 224 175 264 220 240 231 266 269 313 350 331 344 346 354 4 355 356 356 347 5 358 353 354 360 4 7 10 19 22 31 43 52 54
100 74 166 198 199 120 220 228 247 154 169 234 228 283 261 274 265 264 253 258 260 287 298 318 329 342 346 351 360 340 1 357 11 4 9 15 12 15 21 29 36 49 57 65
225 192 143 260 265 260 236 218 206 214 214 174 248 264 283 276 250 246 229 191 200 246 265 270 266 307 318 343 354 336 353 349 32 16 18 16 15 19 24 38 45 49 59 62
187 155 111 289 352 343 270 238 208 231 257 267 269 283 273 269 129 265 230 207 220 234 238 238 244 228 245 309 327 341 354 1 18 30 28 19 26 25 22 29 40 50 56 63
165 147 78 274 299 325 304 222 189 185 199 171 190 225 222 279 257 227 204 197 217 229 206 200 195 180 166 174 18 7 3 20 19 30 16 24 29 37 26 31 37 35 48 54
166 123 112 260 357 359 239 142 180 195 223 213 256 240 210 245 256 237 205 186 207 207 189 159 147 145 154 149 176 23 42 32 35 41 34 19 24 40 40 43 44 38 46 54
359 183 68 123 199 286 288 196 173 176 278 208 222 246 215 240 318 272 211 193 186 178 173 153 140 136 136 131 121 91 69 72 53 41 34 40 33 55 54 52 34 26 43 53
328 2 123 44 123 223 238 168 181 142 300 195 200 218 200 130 241 254 155 156 158 141 144 146 146 141 143 147 127 115 108 96 72 36 31 29 48 67 70 78 57 47 54 75
161 116 184 202 254 283 219 156 151 79 240 184 182 198 182 187 202 186 113 139 145 141 151 152 153 165 168 143 137 131 139 104 74 28 36 36 37 61 61 66 54 61 62 82
167 155 192 146 194 279 141 83 175 206 75 178 224 202 196 217 151 171 184 169 153 155 158 164 165 163 177 168 160 160 169 140 90 80 66 38 34 45 69 69 35 47 56 45
230 192 180 193 216 275 197 207 210 105 283 213 233 227 201 206 215 195 205 192 194 178 174 173 170 165 173 175 173 164 194 149 139 97 92 74 46 35 27 62 46 42 75 91
234 165 201 54 255 229 229 261 257 223 215 246 230 225 208 213 203 217 204 196 194 195 189 169 159 179 193 193 190 193 158 158 149 157 168 151 138 152 200 170 164 151 147 128
182 136 173 265 286 281 261 229 248 242 223 227 234 219 208 219 240 212 205 206 197 194 181 178 186 191 205 179 192 182 162 158 175 178 187 193 171 184 161 127 152 114 327 156
184 180 180 215 218 191 230 190 198 219 224 230 214 231 230 200 224 210 222 203 192 193 177 190 201 195 199 184 187 179 170 171 176 196 204 205 190 185 167 138 60 142 137 96